Year,Month,Day,Hour,Minute,Value (Times are PST for temperature in C)
2019,08,14,00,00,18.80
2019,08,14,00,01,18.80
2019,08,14,00,02,18.70
2019,08,14,00,03,18.70
2019,08,14,00,04,18.70
2019,08,14,00,05,18.70
2019,08,14,00,06,18.60
2019,08,14,00,07,18.60
2019,08,14,00,08,18.60
2019,08,14,00,09,18.60
2019,08,14,00,10,18.60
2019,08,14,00,11,18.50
2019,08,14,00,12,18.50
2019,08,14,00,13,18.50
2019,08,14,00,14,18.50
2019,08,14,00,15,18.50
2019,08,14,00,16,18.40
2019,08,14,00,17,18.40
2019,08,14,00,18,18.40
2019,08,14,00,19,18.40
2019,08,14,00,20,18.40
2019,08,14,00,21,18.40
2019,08,14,00,22,18.40
2019,08,14,00,23,18.40
2019,08,14,00,24,18.40
2019,08,14,00,25,18.30
2019,08,14,00,26,18.30
2019,08,14,00,27,18.30
2019,08,14,00,28,18.30
2019,08,14,00,29,18.30
2019,08,14,00,30,18.30
2019,08,14,00,31,18.30
2019,08,14,00,32,18.30
2019,08,14,00,33,18.30
2019,08,14,00,34,18.30
2019,08,14,00,35,18.30
2019,08,14,00,36,18.30
2019,08,14,00,37,18.30
2019,08,14,00,38,18.30
2019,08,14,00,39,18.30
2019,08,14,00,40,18.30
2019,08,14,00,41,18.30
2019,08,14,00,42,18.30
2019,08,14,00,43,18.30
2019,08,14,00,44,18.30
2019,08,14,00,45,18.20
2019,08,14,00,46,18.20
2019,08,14,00,47,18.20
2019,08,14,00,48,18.20
2019,08,14,00,49,18.20
2019,08,14,00,50,18.20
2019,08,14,00,51,18.20
2019,08,14,00,52,18.20
2019,08,14,00,53,18.20
2019,08,14,00,54,18.20
2019,08,14,00,55,18.20
2019,08,14,00,56,18.10
2019,08,14,00,57,18.10
2019,08,14,00,58,18.10
2019,08,14,00,59,18.10
2019,08,14,01,00,18.10
2019,08,14,01,01,18.10
2019,08,14,01,02,18.00
2019,08,14,01,03,17.90
2019,08,14,01,04,18.00
2019,08,14,01,05,18.10
2019,08,14,01,06,18.10
2019,08,14,01,07,18.00
2019,08,14,01,08,17.90
2019,08,14,01,09,17.90
2019,08,14,01,10,17.90
2019,08,14,01,11,17.90
2019,08,14,01,12,17.80
2019,08,14,01,13,17.80
2019,08,14,01,14,17.80
2019,08,14,01,15,17.70
2019,08,14,01,16,17.70
2019,08,14,01,17,17.70
2019,08,14,01,18,17.60
2019,08,14,01,19,17.60
2019,08,14,01,20,17.60
2019,08,14,01,21,17.60
2019,08,14,01,22,17.60
2019,08,14,01,23,17.60
2019,08,14,01,24,17.60
2019,08,14,01,25,17.60
2019,08,14,01,26,17.50
2019,08,14,01,27,17.50
2019,08,14,01,28,17.50
2019,08,14,01,29,17.50
2019,08,14,01,30,17.50
2019,08,14,01,31,17.50
2019,08,14,01,32,17.50
2019,08,14,01,33,17.50
2019,08,14,01,34,17.50
2019,08,14,01,35,17.50
2019,08,14,01,36,17.50
2019,08,14,01,37,17.50
2019,08,14,01,38,17.50
2019,08,14,01,39,17.50
2019,08,14,01,40,17.50
2019,08,14,01,41,17.50
2019,08,14,01,42,17.50
2019,08,14,01,43,17.50
2019,08,14,01,44,17.50
2019,08,14,01,45,17.50
2019,08,14,01,46,17.50
2019,08,14,01,47,17.50
2019,08,14,01,48,17.50
2019,08,14,01,49,17.40
2019,08,14,01,50,17.40
2019,08,14,01,51,17.40
2019,08,14,01,52,17.40
2019,08,14,01,53,17.40
2019,08,14,01,54,17.40
2019,08,14,01,55,17.40
2019,08,14,01,56,17.40
2019,08,14,01,57,17.30
2019,08,14,01,58,17.40
2019,08,14,01,59,17.30
2019,08,14,02,00,17.30
2019,08,14,02,01,17.30
2019,08,14,02,02,17.30
2019,08,14,02,03,17.30
2019,08,14,02,04,17.30
2019,08,14,02,05,17.30
2019,08,14,02,06,17.30
2019,08,14,02,07,17.30
2019,08,14,02,08,17.30
2019,08,14,02,09,17.30
2019,08,14,02,10,17.30
2019,08,14,02,11,17.30
2019,08,14,02,12,17.30
2019,08,14,02,13,17.30
2019,08,14,02,14,17.30
2019,08,14,02,15,17.30
2019,08,14,02,16,17.20
2019,08,14,02,17,17.20
2019,08,14,02,18,17.20
2019,08,14,02,19,17.20
2019,08,14,02,20,17.10
2019,08,14,02,21,17.10
2019,08,14,02,22,17.10
2019,08,14,02,23,17.10
2019,08,14,02,24,17.00
2019,08,14,02,25,17.00
2019,08,14,02,26,17.00
2019,08,14,02,27,17.00
2019,08,14,02,28,17.00
2019,08,14,02,29,17.00
2019,08,14,02,30,17.00
2019,08,14,02,31,16.90
2019,08,14,02,32,16.90
2019,08,14,02,33,16.90
2019,08,14,02,34,17.00
2019,08,14,02,35,17.00
2019,08,14,02,36,17.00
2019,08,14,02,37,17.00
2019,08,14,02,38,17.00
2019,08,14,02,39,17.00
2019,08,14,02,40,17.00
2019,08,14,02,41,17.00
2019,08,14,02,42,17.00
2019,08,14,02,43,17.00
2019,08,14,02,44,17.00
2019,08,14,02,45,17.00
2019,08,14,02,46,17.00
2019,08,14,02,47,17.00
2019,08,14,02,48,17.00
2019,08,14,02,49,17.00
2019,08,14,02,50,17.00
2019,08,14,02,51,17.00
2019,08,14,02,52,17.00
2019,08,14,02,53,17.00
2019,08,14,02,54,16.90
2019,08,14,02,55,16.90
2019,08,14,02,56,16.90
2019,08,14,02,57,16.90
2019,08,14,02,58,16.90
2019,08,14,02,59,16.80
2019,08,14,03,00,16.80
2019,08,14,03,01,16.80
2019,08,14,03,02,16.80
2019,08,14,03,03,16.80
2019,08,14,03,04,16.80
2019,08,14,03,05,16.70
2019,08,14,03,06,16.70
2019,08,14,03,07,16.70
2019,08,14,03,08,16.70
2019,08,14,03,09,16.70
2019,08,14,03,10,16.70
2019,08,14,03,11,16.70
2019,08,14,03,12,16.70
2019,08,14,03,13,16.70
2019,08,14,03,14,16.70
2019,08,14,03,15,16.70
2019,08,14,03,16,16.70
2019,08,14,03,17,16.70
2019,08,14,03,18,16.70
2019,08,14,03,19,16.70
2019,08,14,03,20,16.70
2019,08,14,03,21,16.70
2019,08,14,03,22,16.70
2019,08,14,03,23,16.70
2019,08,14,03,24,16.70
2019,08,14,03,25,16.70
2019,08,14,03,26,16.70
2019,08,14,03,27,16.70
2019,08,14,03,28,16.70
2019,08,14,03,29,16.70
2019,08,14,03,30,16.70
2019,08,14,03,31,16.70
2019,08,14,03,32,16.70
2019,08,14,03,33,16.70
2019,08,14,03,34,16.70
2019,08,14,03,35,16.70
2019,08,14,03,36,16.70
2019,08,14,03,37,16.70
2019,08,14,03,38,16.70
2019,08,14,03,39,16.70
2019,08,14,03,40,16.70
2019,08,14,03,41,16.70
2019,08,14,03,42,16.70
2019,08,14,03,43,16.70
2019,08,14,03,44,16.70
2019,08,14,03,45,16.70
2019,08,14,03,46,16.70
2019,08,14,03,47,16.70
2019,08,14,03,48,16.70
2019,08,14,03,49,16.70
2019,08,14,03,50,16.70
2019,08,14,03,51,16.60
2019,08,14,03,52,16.60
2019,08,14,03,53,16.60
2019,08,14,03,54,16.60
2019,08,14,03,55,16.50
2019,08,14,03,56,16.40
2019,08,14,03,57,16.40
2019,08,14,03,58,16.40
2019,08,14,03,59,16.40
2019,08,14,04,00,16.40
2019,08,14,04,01,16.40
2019,08,14,04,02,16.40
2019,08,14,04,03,16.40
2019,08,14,04,04,16.40
2019,08,14,04,05,16.40
2019,08,14,04,06,16.40
2019,08,14,04,07,16.40
2019,08,14,04,08,16.40
2019,08,14,04,09,16.40
2019,08,14,04,10,16.40
2019,08,14,04,11,16.40
2019,08,14,04,12,16.40
2019,08,14,04,13,16.40
2019,08,14,04,14,16.40
2019,08,14,04,15,16.40
2019,08,14,04,16,16.40
2019,08,14,04,17,16.40
2019,08,14,04,18,16.40
2019,08,14,04,19,16.40
2019,08,14,04,20,16.40
2019,08,14,04,21,16.40
2019,08,14,04,22,16.40
2019,08,14,04,23,16.40
2019,08,14,04,24,16.40
2019,08,14,04,25,16.40
2019,08,14,04,26,16.40
2019,08,14,04,27,16.40
2019,08,14,04,28,16.30
2019,08,14,04,29,16.30
2019,08,14,04,30,16.30
2019,08,14,04,31,16.30
2019,08,14,04,32,16.30
2019,08,14,04,33,16.30
2019,08,14,04,34,16.30
2019,08,14,04,35,16.30
2019,08,14,04,36,16.30
2019,08,14,04,37,16.30
2019,08,14,04,38,16.30
2019,08,14,04,39,16.30
2019,08,14,04,40,16.30
2019,08,14,04,41,16.30
2019,08,14,04,42,16.20
2019,08,14,04,43,16.20
2019,08,14,04,44,16.20
2019,08,14,04,45,16.20
2019,08,14,04,46,16.20
2019,08,14,04,47,16.20
2019,08,14,04,48,16.20
2019,08,14,04,49,16.30
2019,08,14,04,50,16.30
2019,08,14,04,51,16.20
2019,08,14,04,52,16.20
2019,08,14,04,53,16.20
2019,08,14,04,54,16.20
2019,08,14,04,55,16.20
2019,08,14,04,56,16.20
2019,08,14,04,57,16.20
2019,08,14,04,58,16.10
2019,08,14,04,59,16.10
2019,08,14,05,00,16.10
2019,08,14,05,01,16.10
2019,08,14,05,02,16.10
2019,08,14,05,03,16.10
2019,08,14,05,04,16.10
2019,08,14,05,05,16.10
2019,08,14,05,06,16.10
2019,08,14,05,07,16.10
2019,08,14,05,08,16.10
2019,08,14,05,09,16.10
2019,08,14,05,10,16.10
2019,08,14,05,11,16.10
2019,08,14,05,12,16.10
2019,08,14,05,13,16.10
2019,08,14,05,14,16.10
2019,08,14,05,15,16.10
2019,08,14,05,16,16.10
2019,08,14,05,17,16.10
2019,08,14,05,18,16.00
2019,08,14,05,19,15.90
2019,08,14,05,20,15.90
2019,08,14,05,21,15.90
2019,08,14,05,22,15.90
2019,08,14,05,23,15.90
2019,08,14,05,24,15.90
2019,08,14,05,25,15.90
2019,08,14,05,26,15.90
2019,08,14,05,27,15.80
2019,08,14,05,28,15.80
2019,08,14,05,29,15.80
2019,08,14,05,30,15.80
2019,08,14,05,31,15.80
2019,08,14,05,32,15.80
2019,08,14,05,33,15.80
2019,08,14,05,34,15.80
2019,08,14,05,35,15.80
2019,08,14,05,36,15.80
2019,08,14,05,37,15.80
2019,08,14,05,38,15.80
2019,08,14,05,39,15.80
2019,08,14,05,40,15.80
2019,08,14,05,41,15.80
2019,08,14,05,42,15.80
2019,08,14,05,43,15.80
2019,08,14,05,44,15.80
2019,08,14,05,45,15.80
2019,08,14,05,46,15.80
2019,08,14,05,47,15.80
2019,08,14,05,48,15.80
2019,08,14,05,49,15.80
2019,08,14,05,50,15.80
2019,08,14,05,51,15.80
2019,08,14,05,52,15.80
2019,08,14,05,53,15.80
2019,08,14,05,54,15.80
2019,08,14,05,55,15.80
2019,08,14,05,56,15.80
2019,08,14,05,57,15.80
2019,08,14,05,58,15.80
2019,08,14,05,59,15.80
2019,08,14,06,00,15.70
2019,08,14,06,01,15.70
2019,08,14,06,02,15.70
2019,08,14,06,03,15.70
2019,08,14,06,04,15.70
2019,08,14,06,05,15.70
2019,08,14,06,06,15.70
2019,08,14,06,07,15.70
2019,08,14,06,08,15.70
2019,08,14,06,09,15.70
2019,08,14,06,10,15.70
2019,08,14,06,11,15.70
2019,08,14,06,12,15.80
2019,08,14,06,13,15.80
2019,08,14,06,14,15.80
2019,08,14,06,15,15.80
2019,08,14,06,16,15.80
2019,08,14,06,17,15.80
2019,08,14,06,18,15.80
2019,08,14,06,19,15.80
2019,08,14,06,20,15.80
2019,08,14,06,21,15.80
2019,08,14,06,22,15.80
2019,08,14,06,23,15.90
2019,08,14,06,24,15.90
2019,08,14,06,25,15.90
2019,08,14,06,26,15.90
2019,08,14,06,27,15.90
2019,08,14,06,28,15.90
2019,08,14,06,29,15.90
2019,08,14,06,30,15.90
2019,08,14,06,31,15.90
2019,08,14,06,32,15.90
2019,08,14,06,33,15.90
2019,08,14,06,34,15.80
2019,08,14,06,35,15.80
2019,08,14,06,36,15.80
2019,08,14,06,37,15.80
2019,08,14,06,38,15.80
2019,08,14,06,39,15.80
2019,08,14,06,40,15.80
2019,08,14,06,41,15.80
2019,08,14,06,42,15.80
2019,08,14,06,43,15.80
2019,08,14,06,44,15.80
2019,08,14,06,45,15.80
2019,08,14,06,46,15.80
2019,08,14,06,47,15.80
2019,08,14,06,48,15.80
2019,08,14,06,49,15.80
2019,08,14,06,50,15.80
2019,08,14,06,51,15.80
2019,08,14,06,52,15.80
2019,08,14,06,53,15.80
2019,08,14,06,54,15.80
2019,08,14,06,55,15.80
2019,08,14,06,56,15.80
2019,08,14,06,57,15.90
2019,08,14,06,58,15.90
2019,08,14,06,59,15.90
2019,08,14,07,00,15.90
2019,08,14,07,01,15.90
2019,08,14,07,02,15.90
2019,08,14,07,03,15.90
2019,08,14,07,04,15.90
2019,08,14,07,05,15.90
2019,08,14,07,06,15.90
2019,08,14,07,07,16.00
2019,08,14,07,08,16.10
2019,08,14,07,09,16.10
2019,08,14,07,10,16.10
2019,08,14,07,11,16.10
2019,08,14,07,12,16.10
2019,08,14,07,13,16.10
2019,08,14,07,14,16.10
2019,08,14,07,15,16.10
2019,08,14,07,16,16.10
2019,08,14,07,17,16.10
2019,08,14,07,18,16.10
2019,08,14,07,19,16.20
2019,08,14,07,20,16.20
2019,08,14,07,21,16.20
2019,08,14,07,22,16.30
2019,08,14,07,23,16.30
2019,08,14,07,24,16.40
2019,08,14,07,25,16.40
2019,08,14,07,26,16.50
2019,08,14,07,27,16.60
2019,08,14,07,28,16.70
2019,08,14,07,29,16.70
2019,08,14,07,30,16.70
2019,08,14,07,31,16.70
2019,08,14,07,32,16.70
2019,08,14,07,33,16.80
2019,08,14,07,34,16.80
2019,08,14,07,35,16.80
2019,08,14,07,36,16.90
2019,08,14,07,37,16.90
2019,08,14,07,38,17.00
2019,08,14,07,39,17.00
2019,08,14,07,40,17.10
2019,08,14,07,41,17.10
2019,08,14,07,42,17.10
2019,08,14,07,43,17.20
2019,08,14,07,44,17.20
2019,08,14,07,45,17.30
2019,08,14,07,46,17.30
2019,08,14,07,47,17.30
2019,08,14,07,48,17.40
2019,08,14,07,49,17.50
2019,08,14,07,50,17.50
2019,08,14,07,51,17.60
2019,08,14,07,52,17.70
2019,08,14,07,53,17.80
2019,08,14,07,54,17.90
2019,08,14,07,55,18.00
2019,08,14,07,56,18.10
2019,08,14,07,57,18.20
2019,08,14,07,58,18.20
2019,08,14,07,59,18.20
2019,08,14,08,00,18.20
2019,08,14,08,01,18.20
2019,08,14,08,02,18.20
2019,08,14,08,03,18.20
2019,08,14,08,04,18.20
2019,08,14,08,05,18.20
2019,08,14,08,06,18.20
2019,08,14,08,07,18.30
2019,08,14,08,08,18.30
2019,08,14,08,09,18.40
2019,08,14,08,10,18.40
2019,08,14,08,11,18.40
2019,08,14,08,12,18.40
2019,08,14,08,13,18.40
2019,08,14,08,14,18.50
2019,08,14,08,15,18.50
2019,08,14,08,16,18.60
2019,08,14,08,17,18.60
2019,08,14,08,18,18.70
2019,08,14,08,19,18.70
2019,08,14,08,20,18.80
2019,08,14,08,21,18.90
2019,08,14,08,22,18.90
2019,08,14,08,23,18.90
2019,08,14,08,24,18.90
2019,08,14,08,25,19.00
2019,08,14,08,26,19.10
2019,08,14,08,27,19.10
2019,08,14,08,28,19.20
2019,08,14,08,29,19.20
2019,08,14,08,30,19.30
2019,08,14,08,31,19.30
2019,08,14,08,32,19.30
2019,08,14,08,33,19.40
2019,08,14,08,34,19.40
2019,08,14,08,35,19.50
2019,08,14,08,36,19.60
2019,08,14,08,37,19.60
2019,08,14,08,38,19.60
2019,08,14,08,39,19.70
2019,08,14,08,40,19.70
2019,08,14,08,41,19.70
2019,08,14,08,42,19.70
2019,08,14,08,43,19.80
2019,08,14,08,44,19.80
2019,08,14,08,45,19.80
2019,08,14,08,46,19.90
2019,08,14,08,47,19.90
2019,08,14,08,48,19.80
2019,08,14,08,49,19.80
2019,08,14,08,50,19.90
2019,08,14,08,51,19.90
2019,08,14,08,52,19.90
2019,08,14,08,53,19.90
2019,08,14,08,54,19.90
2019,08,14,08,55,19.90
2019,08,14,08,56,19.90
2019,08,14,08,57,19.90
2019,08,14,08,58,19.90
2019,08,14,08,59,19.90
2019,08,14,09,00,19.90
2019,08,14,09,01,19.90
2019,08,14,09,02,19.90
2019,08,14,09,03,19.90
2019,08,14,09,04,20.00
2019,08,14,09,05,20.10
2019,08,14,09,06,20.10
2019,08,14,09,07,20.10
2019,08,14,09,08,20.10
2019,08,14,09,09,20.10
2019,08,14,09,10,20.10
2019,08,14,09,11,20.10
2019,08,14,09,12,20.20
2019,08,14,09,13,20.20
2019,08,14,09,14,20.30
2019,08,14,09,15,20.30
2019,08,14,09,16,20.40
2019,08,14,09,17,20.40
2019,08,14,09,18,20.50
2019,08,14,09,19,20.50
2019,08,14,09,20,20.50
2019,08,14,09,21,20.60
2019,08,14,09,22,20.60
2019,08,14,09,23,20.60
2019,08,14,09,24,20.50
2019,08,14,09,25,20.50
2019,08,14,09,26,20.50
2019,08,14,09,27,20.60
2019,08,14,09,28,20.60
2019,08,14,09,29,20.60
2019,08,14,09,30,20.60
2019,08,14,09,31,20.70
2019,08,14,09,32,20.70
2019,08,14,09,33,20.80
2019,08,14,09,34,20.90
2019,08,14,09,35,20.90
2019,08,14,09,36,20.90
2019,08,14,09,37,21.00
2019,08,14,09,38,21.00
2019,08,14,09,39,21.00
2019,08,14,09,40,21.00
2019,08,14,09,41,21.00
2019,08,14,09,42,21.00
2019,08,14,09,43,21.00
2019,08,14,09,44,21.00
2019,08,14,09,45,21.00
2019,08,14,09,46,20.90
2019,08,14,09,47,20.80
2019,08,14,09,48,20.90
2019,08,14,09,49,20.90
2019,08,14,09,50,20.90
2019,08,14,09,51,20.90
2019,08,14,09,52,20.90
2019,08,14,09,53,20.80
2019,08,14,09,54,20.80
2019,08,14,09,55,20.80
2019,08,14,09,56,20.80
2019,08,14,09,57,20.90
2019,08,14,09,58,20.90
2019,08,14,09,59,20.90
2019,08,14,10,00,20.90
2019,08,14,10,01,20.90
2019,08,14,10,02,20.90
2019,08,14,10,03,20.90
2019,08,14,10,04,20.80
2019,08,14,10,05,20.80
2019,08,14,10,06,20.90
2019,08,14,10,07,20.90
2019,08,14,10,08,20.90
2019,08,14,10,09,20.90
2019,08,14,10,10,20.90
2019,08,14,10,11,20.90
2019,08,14,10,12,20.90
2019,08,14,10,13,20.90
2019,08,14,10,14,20.90
2019,08,14,10,15,20.90
2019,08,14,10,16,20.90
2019,08,14,10,17,20.90
2019,08,14,10,18,20.90
2019,08,14,10,19,20.90
2019,08,14,10,20,20.90
2019,08,14,10,21,20.80
2019,08,14,10,22,20.80
2019,08,14,10,23,20.80
2019,08,14,10,24,20.80
2019,08,14,10,25,20.80
2019,08,14,10,26,20.80
2019,08,14,10,27,20.80
2019,08,14,10,28,20.80
2019,08,14,10,29,20.80
2019,08,14,10,30,20.90
2019,08,14,10,31,21.00
2019,08,14,10,32,21.00
2019,08,14,10,33,21.00
2019,08,14,10,34,21.00
2019,08,14,10,35,21.00
2019,08,14,10,36,21.10
2019,08,14,10,37,21.10
2019,08,14,10,38,21.20
2019,08,14,10,39,21.30
2019,08,14,10,40,21.30
2019,08,14,10,41,21.30
2019,08,14,10,42,21.30
2019,08,14,10,43,21.40
2019,08,14,10,44,21.40
2019,08,14,10,45,21.50
2019,08,14,10,46,21.60
2019,08,14,10,47,21.60
2019,08,14,10,48,21.60
2019,08,14,10,49,21.50
2019,08,14,10,50,21.60
2019,08,14,10,51,21.60
2019,08,14,10,52,21.60
2019,08,14,10,53,21.70
2019,08,14,10,54,21.70
2019,08,14,10,55,21.80
2019,08,14,10,56,21.80
2019,08,14,10,57,21.90
2019,08,14,10,58,21.90
2019,08,14,10,59,22.00
2019,08,14,11,00,22.00
2019,08,14,11,01,22.00
2019,08,14,11,02,22.00
2019,08,14,11,03,21.90
2019,08,14,11,04,21.90
2019,08,14,11,05,21.90
2019,08,14,11,06,21.80
2019,08,14,11,07,21.80
2019,08,14,11,08,21.80
2019,08,14,11,09,21.80
2019,08,14,11,10,21.80
2019,08,14,11,11,21.70
2019,08,14,11,12,21.60
2019,08,14,11,13,21.60
2019,08,14,11,14,21.60
2019,08,14,11,15,21.60
2019,08,14,11,16,21.60
2019,08,14,11,17,21.60
2019,08,14,11,18,21.50
2019,08,14,11,19,21.40
2019,08,14,11,20,21.40
2019,08,14,11,21,21.40
2019,08,14,11,22,21.40
2019,08,14,11,23,21.40
2019,08,14,11,24,21.40
2019,08,14,11,25,21.30
2019,08,14,11,26,21.30
2019,08,14,11,27,21.30
2019,08,14,11,28,21.30
2019,08,14,11,29,21.40
2019,08,14,11,30,21.30
2019,08,14,11,31,21.40
2019,08,14,11,32,21.40
2019,08,14,11,33,21.30
2019,08,14,11,34,21.30
2019,08,14,11,35,21.40
2019,08,14,11,36,21.30
2019,08,14,11,37,21.30
2019,08,14,11,38,21.30
2019,08,14,11,39,21.30
2019,08,14,11,40,21.30
2019,08,14,11,41,21.30
2019,08,14,11,42,21.30
2019,08,14,11,43,21.30
2019,08,14,11,44,21.30
2019,08,14,11,45,21.40
2019,08,14,11,46,21.50
2019,08,14,11,47,21.60
2019,08,14,11,48,21.60
2019,08,14,11,49,21.60
2019,08,14,11,50,21.60
2019,08,14,11,51,21.60
2019,08,14,11,52,21.60
2019,08,14,11,53,21.50
2019,08,14,11,54,21.40
2019,08,14,11,55,21.40
2019,08,14,11,56,21.40
2019,08,14,11,57,21.30
2019,08,14,11,58,21.20
2019,08,14,11,59,21.20
2019,08,14,12,00,21.20
2019,08,14,12,01,21.10
2019,08,14,12,02,21.00
2019,08,14,12,03,20.90
2019,08,14,12,04,20.80
2019,08,14,12,05,20.80
2019,08,14,12,06,20.80
2019,08,14,12,07,20.80
2019,08,14,12,08,20.80
2019,08,14,12,09,20.90
2019,08,14,12,10,20.90
2019,08,14,12,11,21.00
2019,08,14,12,12,21.00
2019,08,14,12,13,21.00
2019,08,14,12,14,21.00
2019,08,14,12,15,21.00
2019,08,14,12,16,21.00
2019,08,14,12,17,21.00
2019,08,14,12,18,21.10
2019,08,14,12,19,21.20
2019,08,14,12,20,21.30
2019,08,14,12,21,21.30
2019,08,14,12,22,21.40
2019,08,14,12,23,21.50
2019,08,14,12,24,21.60
2019,08,14,12,25,21.60
2019,08,14,12,26,21.60
2019,08,14,12,27,21.60
2019,08,14,12,28,21.40
2019,08,14,12,29,21.50
2019,08,14,12,30,21.50
2019,08,14,12,31,21.40
2019,08,14,12,32,21.50
2019,08,14,12,33,21.60
2019,08,14,12,34,21.60
2019,08,14,12,35,21.60
2019,08,14,12,36,21.60
2019,08,14,12,37,21.70
2019,08,14,12,38,21.70
2019,08,14,12,39,21.70
2019,08,14,12,40,21.70
2019,08,14,12,41,21.70
2019,08,14,12,42,21.80
2019,08,14,12,43,21.90
2019,08,14,12,44,22.00
2019,08,14,12,45,22.00
2019,08,14,12,46,22.10
2019,08,14,12,47,22.20
2019,08,14,12,48,22.20
2019,08,14,12,49,22.20
2019,08,14,12,50,22.10
2019,08,14,12,51,22.20
2019,08,14,12,52,22.20
2019,08,14,12,53,22.30
2019,08,14,12,54,22.30
2019,08,14,12,55,22.30
2019,08,14,12,56,22.30
2019,08,14,12,57,22.30
2019,08,14,12,58,22.40
2019,08,14,12,59,22.40
2019,08,14,13,00,22.40
2019,08,14,13,01,22.40
2019,08,14,13,02,22.40
2019,08,14,13,03,22.40
2019,08,14,13,04,22.50
2019,08,14,13,05,22.60
2019,08,14,13,06,22.70
2019,08,14,13,07,22.70
2019,08,14,13,08,22.80
2019,08,14,13,09,22.80
2019,08,14,13,10,22.80
2019,08,14,13,11,22.80
2019,08,14,13,12,22.80
2019,08,14,13,13,22.80
2019,08,14,13,14,22.70
2019,08,14,13,15,22.70
2019,08,14,13,16,22.80
2019,08,14,13,17,22.90
2019,08,14,13,18,22.90
2019,08,14,13,19,22.90
2019,08,14,13,20,22.90
2019,08,14,13,21,22.90
2019,08,14,13,22,22.90
2019,08,14,13,23,23.00
2019,08,14,13,24,23.10
2019,08,14,13,25,23.00
2019,08,14,13,26,22.90
2019,08,14,13,27,22.90
2019,08,14,13,28,23.00
2019,08,14,13,29,23.10
2019,08,14,13,30,23.20
2019,08,14,13,31,23.20
2019,08,14,13,32,23.30
2019,08,14,13,33,23.30
2019,08,14,13,34,23.40
2019,08,14,13,35,23.30
2019,08,14,13,36,23.30
2019,08,14,13,37,23.30
2019,08,14,13,38,23.30
2019,08,14,13,39,23.30
2019,08,14,13,40,23.30
2019,08,14,13,41,23.30
2019,08,14,13,42,23.30
2019,08,14,13,43,23.40
2019,08,14,13,44,23.40
2019,08,14,13,45,23.40
2019,08,14,13,46,23.40
2019,08,14,13,47,23.50
2019,08,14,13,48,23.60
2019,08,14,13,49,23.60
2019,08,14,13,50,23.60
2019,08,14,13,51,23.60
2019,08,14,13,52,23.60
2019,08,14,13,53,23.70
2019,08,14,13,54,23.70
2019,08,14,13,55,23.70
2019,08,14,13,56,23.70
2019,08,14,13,57,23.90
2019,08,14,13,58,23.90
2019,08,14,13,59,24.10
2019,08,14,14,00,24.10
2019,08,14,14,01,24.20
2019,08,14,14,02,24.20
2019,08,14,14,03,24.30
2019,08,14,14,04,24.30
2019,08,14,14,05,24.30
2019,08,14,14,06,24.30
2019,08,14,14,07,24.20
2019,08,14,14,08,24.20
2019,08,14,14,09,24.10
2019,08,14,14,10,24.10
2019,08,14,14,11,24.10
2019,08,14,14,12,24.00
2019,08,14,14,13,23.90
2019,08,14,14,14,23.80
2019,08,14,14,15,23.80
2019,08,14,14,16,23.80
2019,08,14,14,17,23.90
2019,08,14,14,18,24.00
2019,08,14,14,19,24.10
2019,08,14,14,20,24.10
2019,08,14,14,21,24.10
2019,08,14,14,22,24.10
2019,08,14,14,23,24.10
2019,08,14,14,24,24.00
2019,08,14,14,25,23.80
2019,08,14,14,26,23.70
2019,08,14,14,27,23.60
2019,08,14,14,28,23.50
2019,08,14,14,29,23.40
2019,08,14,14,30,23.50
2019,08,14,14,31,23.70
2019,08,14,14,32,23.80
2019,08,14,14,33,23.90
2019,08,14,14,34,23.90
2019,08,14,14,35,23.80
2019,08,14,14,36,23.80
2019,08,14,14,37,23.70
2019,08,14,14,38,23.70
2019,08,14,14,39,23.70
2019,08,14,14,40,23.70
2019,08,14,14,41,23.80
2019,08,14,14,42,24.00
2019,08,14,14,43,24.10
2019,08,14,14,44,24.20
2019,08,14,14,45,24.20
2019,08,14,14,46,24.30
2019,08,14,14,47,24.30
2019,08,14,14,48,24.40
2019,08,14,14,49,24.40
2019,08,14,14,50,24.30
2019,08,14,14,51,24.10
2019,08,14,14,52,24.00
2019,08,14,14,53,23.90
2019,08,14,14,54,23.80
2019,08,14,14,55,23.70
2019,08,14,14,56,23.70
2019,08,14,14,57,23.70
2019,08,14,14,58,23.70
2019,08,14,14,59,23.60
2019,08,14,15,00,23.50
2019,08,14,15,01,23.40
2019,08,14,15,02,23.40
2019,08,14,15,03,23.40
2019,08,14,15,04,23.50
2019,08,14,15,05,23.60
2019,08,14,15,06,23.80
2019,08,14,15,07,24.00
2019,08,14,15,08,24.00
2019,08,14,15,09,23.90
2019,08,14,15,10,23.80
2019,08,14,15,11,23.70
2019,08,14,15,12,23.50
2019,08,14,15,13,23.40
2019,08,14,15,14,23.30
2019,08,14,15,15,23.30
2019,08,14,15,16,23.50
2019,08,14,15,17,23.60
2019,08,14,15,18,23.70
2019,08,14,15,19,23.70
2019,08,14,15,20,23.80
2019,08,14,15,21,23.90
2019,08,14,15,22,24.10
2019,08,14,15,23,24.20
2019,08,14,15,24,24.40
2019,08,14,15,25,24.50
2019,08,14,15,26,24.60
2019,08,14,15,27,24.60
2019,08,14,15,28,24.70
2019,08,14,15,29,24.70
2019,08,14,15,30,24.50
2019,08,14,15,31,24.40
2019,08,14,15,32,24.30
2019,08,14,15,33,24.20
2019,08,14,15,34,24.20
2019,08,14,15,35,24.20
2019,08,14,15,36,24.10
2019,08,14,15,37,24.10
2019,08,14,15,38,24.20
2019,08,14,15,39,24.20
2019,08,14,15,40,24.20
2019,08,14,15,41,24.20
2019,08,14,15,42,24.10
2019,08,14,15,43,24.10
2019,08,14,15,44,24.00
2019,08,14,15,45,23.90
2019,08,14,15,46,23.90
2019,08,14,15,47,23.90
2019,08,14,15,48,24.00
2019,08,14,15,49,24.10
2019,08,14,15,50,24.10
2019,08,14,15,51,24.10
2019,08,14,15,52,24.10
2019,08,14,15,53,24.10
2019,08,14,15,54,24.00
2019,08,14,15,55,23.90
2019,08,14,15,56,24.00
2019,08,14,15,57,24.10
2019,08,14,15,58,24.20
2019,08,14,15,59,24.40
2019,08,14,16,00,24.40
2019,08,14,16,01,24.40
2019,08,14,16,02,24.50
2019,08,14,16,03,24.60
2019,08,14,16,04,24.70
2019,08,14,16,05,24.70
2019,08,14,16,06,24.80
2019,08,14,16,07,24.80
2019,08,14,16,08,24.80
2019,08,14,16,09,24.80
2019,08,14,16,10,24.80
2019,08,14,16,11,24.80
2019,08,14,16,12,24.80
2019,08,14,16,13,24.80
2019,08,14,16,14,24.80
2019,08,14,16,15,24.80
2019,08,14,16,16,24.90
2019,08,14,16,17,24.90
2019,08,14,16,18,25.00
2019,08,14,16,19,25.00
2019,08,14,16,20,25.00
2019,08,14,16,21,25.00
2019,08,14,16,22,25.00
2019,08,14,16,23,25.00
2019,08,14,16,24,25.00
2019,08,14,16,25,25.00
2019,08,14,16,26,25.00
2019,08,14,16,27,25.00
2019,08,14,17,00,24.10
2019,08,14,17,01,24.10
2019,08,14,17,02,24.00
2019,08,14,17,03,23.90
2019,08,14,17,04,23.90
2019,08,14,17,05,23.80
2019,08,14,17,06,23.90
2019,08,14,17,07,24.00
2019,08,14,17,08,24.10
2019,08,14,17,09,24.10
2019,08,14,17,10,24.10
2019,08,14,17,11,24.10
2019,08,14,17,12,24.10
2019,08,14,17,13,24.20
2019,08,14,17,14,24.20
2019,08,14,17,15,24.20
2019,08,14,17,16,24.20
2019,08,14,17,17,24.20
2019,08,14,17,18,24.10
2019,08,14,17,19,24.10
2019,08,14,17,20,24.10
2019,08,14,17,21,24.10
2019,08,14,17,22,24.10
2019,08,14,17,23,24.10
2019,08,14,17,24,24.00
2019,08,14,17,25,23.70
2019,08,14,17,26,23.70
2019,08,14,17,27,23.60
2019,08,14,17,28,23.30
2019,08,14,17,29,23.10
2019,08,14,17,30,23.00
2019,08,14,17,31,22.90
2019,08,14,17,32,22.90
2019,08,14,17,33,22.80
2019,08,14,17,34,22.80
2019,08,14,17,35,22.70
2019,08,14,17,36,22.70
2019,08,14,17,37,22.70
2019,08,14,17,38,22.60
2019,08,14,17,39,22.60
2019,08,14,17,40,22.60
2019,08,14,17,41,22.60
2019,08,14,17,42,22.70
2019,08,14,17,43,22.80
2019,08,14,17,44,22.80
2019,08,14,17,45,22.90
2019,08,14,17,46,22.80
2019,08,14,17,47,22.70
2019,08,14,17,48,22.60
2019,08,14,17,49,22.50
2019,08,14,17,50,22.50
2019,08,14,17,51,22.60